Location: CAO
(44.5093°N, 80.3921°W)
Time: 13:35:57
(UTC-05:00)

N. Korean satellite - Visible Passes

Search period start: 07 March 2021 00:00
Search period end: 17 March 2021 01:00
Orbit: 451 x 502 km, 97.2° (Epoch: 06 March)

Date Brightness Start Highest point End Pass type
(mag) Time Alt. Az. Time Alt. Az. Time Alt. Az.
07 Mar 9.6 04:56:09 10° NE 04:58:37 17° E 05:01:05 10° SE visible
08 Mar 6.5 06:01:45 10° N 06:05:18 68° WNW 06:08:54 10° SSW visible
09 Mar 7.4 05:35:00 10° NNE 05:38:31 53° E 05:42:05 10° S visible
10 Mar 9.0 05:08:38 10° NE 05:11:39 25° E 05:14:40 10° SSE visible
11 Mar 9.9 04:43:06 10° ENE 04:44:40 12° E 04:46:13 10° ESE visible
12 Mar 6.7 05:47:49 10° NNE 05:51:27 79° ESE 05:55:05 10° S visible
13 Mar 8.3 05:21:14 10° NNE 05:24:35 35° E 05:27:58 10° SSE visible
14 Mar 9.6 05:55:08 10° NE 05:57:38 17° E 06:00:09 10° SE visible
15 Mar 6.6 07:00:40 10° N 07:04:17 70° WNW 07:07:56 10° SSW visible
16 Mar 7.5 06:33:54 10° NNE 06:37:28 52° E 06:41:03 10° S visible
